McCook, NE

12:58 AM CDT on April 24, 2018 (GMT -0500)
McCook Municipal

Weather History for KMCK - October, 2013

Change the Weather History Date:

Wednesday, October 2, 2013

  Actual Average Record
Temperature  
Mean Temperature 65 °F 57 °F  
Max Temperature 81 °F 72 °F 97 °F (1997)
Min Temperature 49 °F 42 °F 28 °F (1975)
Growing Degree Days 15 (Base 50)    
Moisture  
Dew Point 54 °F    
Average Humidity 71    
Maximum Humidity 93    
Minimum Humidity 47    
Precipitation  
Precipitation 0.00 in 0.06 in 0.70 in (1950)
Month to date precipitation 0.00 0.12  
Year to date precipitation 11.52 19.27  
Sea Level Pressure  
Sea Level Pressure 29.83 in    
Wind  
Wind Speed 3 mph (East)    
Max Wind Speed 13 mph    
Max Gust Speed 21 mph    
Visibility 10 miles    
Events      
T = Trace of Precipitation, MM = Missing Value Source: NWS Daily Summary

Daily Weather History Graph

Daily Weather History Graph

Search for Another Location

Airport or City:

Astronomy

Oct. 02, 2013 Rise Set
Actual Time 7:40 AM CDT 7:22 PM CDT
Civil Twilight 7:12 AM CDT 7:49 PM CDT
Nautical Twilight 6:41 AM CDT 8:20 PM CDT
Astronomical Twilight 6:09 AM CDT 8:52 PM CDT
Moon 5:14 AM CDT (10/2) 5:59 PM CDT (10/2)
Length of Visible Light 12h 36m
Length of Day
11h 42m
Waning Crescent, 6% of the Moon is Illuminated
Oct 2
Waning Crescent
Oct 4
New
Oct 11
First Quarter
Oct 18
Full
Oct 26
Last Quarter

Hourly Weather History & Observations

Time (CDT) Temp. Heat Index Dew Point Humidity Pressure Visibility Wind Dir Wind Speed Gust Speed Precip Events Conditions
12:53 AM 55.0 °F - 48.0 °F 77% 29.90 in 10.0 mi NNE 3.5 mph - N/A   Clear
1:53 AM 55.9 °F - 48.9 °F 77% 29.89 in 10.0 mi NE 3.5 mph - N/A   Clear
2:53 AM 55.0 °F - 48.9 °F 80% 29.89 in 10.0 mi Calm Calm - N/A   Clear
3:53 AM 54.0 °F - 48.9 °F 83% 29.87 in 10.0 mi Calm Calm - N/A   Clear
4:53 AM 51.1 °F - 48.0 °F 89% 29.86 in 10.0 mi Calm Calm - N/A   Clear
5:53 AM 51.1 °F - 48.0 °F 89% 29.86 in 10.0 mi Calm Calm - N/A   Clear
6:53 AM 50.0 °F - 48.0 °F 93% 29.85 in 10.0 mi Calm Calm - N/A   Clear
7:53 AM 50.0 °F - 46.9 °F 89% 29.87 in 8.0 mi Calm Calm - N/A   Clear
8:53 AM 55.9 °F - 52.0 °F 87% 29.88 in 8.0 mi Calm Calm - N/A   Partly Cloudy
9:53 AM 57.9 °F - 54.0 °F 87% 29.88 in 6.0 mi Calm Calm - N/A   Partly Cloudy
10:53 AM 61.0 °F - 55.0 °F 81% 29.89 in 8.0 mi Calm Calm - N/A   Clear
11:53 AM 70.0 °F - 57.9 °F 65% 29.87 in 10.0 mi SE 5.8 mph - N/A   Clear
12:53 PM 75.0 °F - 59.0 °F 57% 29.85 in 10.0 mi Variable 5.8 mph - N/A   Clear
1:53 PM 78.1 °F - 60.1 °F 54% 29.82 in 10.0 mi ESE 5.8 mph - N/A   Clear
2:53 PM 78.1 °F - 60.1 °F 54% 29.80 in 10.0 mi SE 10.4 mph 20.7 mph N/A   Mostly Cloudy
3:53 PM 78.1 °F - 60.1 °F 54% 29.78 in 10.0 mi ESE 8.1 mph - N/A   Mostly Cloudy
4:53 PM 80.1 °F 80.9 °F 60.1 °F 50% 29.77 in 10.0 mi SE 6.9 mph - N/A   Partly Cloudy
5:53 PM 80.1 °F 80.6 °F 57.9 °F 47% 29.76 in 10.0 mi SSE 9.2 mph - N/A   Mostly Cloudy
6:53 PM 75.9 °F - 59.0 °F 56% 29.77 in 10.0 mi South 3.5 mph - N/A   Clear
7:53 PM 72.0 °F - 57.9 °F 61% 29.77 in 10.0 mi Calm Calm - N/A   Clear
8:53 PM 68.0 °F - 57.9 °F 70% 29.78 in 9.0 mi NE 3.5 mph - N/A   Clear
9:53 PM 66.0 °F - 57.9 °F 75% 29.79 in 10.0 mi NNE 4.6 mph - N/A   Mostly Cloudy
10:53 PM 64.9 °F - 57.9 °F 78% 29.79 in 10.0 mi North 12.7 mph - N/A   Partly Cloudy
11:53 PM 63.0 °F - 46.0 °F 54% 29.77 in 10.0 mi NNE 11.5 mph - N/A   Clear